DateTimeUTC,F1_A11,F1_S11,BsB_S11,BsG_S11,BsR_S11,BbsB_S11,BbsG_S11,BbsR_S11,BaB_A11,BaG_A11,BaR_A11,Tu_S11,T_S11,Uu_S11,U_S11,P_S11,T1_A11
2021-11-18T20:00:00Z,00000200,21000000,,,,,,,0000.13,-000.00,-000.01,18.5,25.8,,00.0,0636.1,30.9
2021-11-18T20:01:00Z,00000200,21000000,,,,,,,-000.10,0000.11,-000.26,18.5,25.8,,00.0,0636.1,30.9
2021-11-18T20:02:00Z,00000200,21000000,,,,,,,-000.01,0000.02,0000.52,18.5,25.8,,00.0,0636.1,30.9
2021-11-18T20:03:00Z,00000200,61000000,,,,,,,0000.41,0000.05,-000.01,18.5,25.8,,00.0,0636.1,30.9
2021-11-18T20:04:00Z,00000200,41000000,0000.45,0000.26,0000.09,0000.18,-000.13,-000.05,-000.12,-000.09,0000.24,18.9,25.7,,00.0,0637.0,30.9
2021-11-18T20:05:00Z,00000200,01000000,0000.57,-000.11,0000.41,0000.57,0000.07,-000.03,0000.13,0000.38,-000.03,19.0,25.7,,00.0,0637.1,30.9
2021-11-18T20:06:00Z,00000200,01000000,0000.66,0000.23,0000.11,-000.50,0000.14,-000.10,-000.28,0000.04,-000.07,19.0,25.7,,00.0,0637.1,30.9
2021-11-18T20:07:00Z,00000200,01000000,-000.28,-000.13,0000.35,0001.26,0000.36,-000.26,0000.41,-000.17,-000.04,19.1,25.7,,00.0,0637.1,31.0
2021-11-18T20:08:00Z,00000200,01000000,0000.55,0000.16,0000.27,-000.10,0000.01,0000.04,-000.14,-000.12,0000.23,19.1,25.7,,00.0,0637.2,31.0
2021-11-18T20:09:00Z,00000200,01000000,0000.56,0000.16,-000.03,0000.67,-000.04,0000.06,-000.14,-000.01,-000.19,19.2,25.8,,00.0,0637.2,31.0
2021-11-18T20:10:00Z,00000200,01000000,-000.23,0000.31,0000.27,-000.21,-000.10,-000.18,0000.01,-000.11,0000.17,19.2,25.8,,00.0,0637.2,31.0
2021-11-18T20:11:00Z,00000200,01000000,-000.54,0000.02,-000.09,0000.59,-000.17,-000.10,0000.03,-000.34,-000.34,19.2,25.8,,00.0,0637.2,31.0
2021-11-18T20:12:00Z,00000200,01000000,-000.01,0000.26,0000.44,0000.38,0000.02,0000.06,0000.14,0000.48,0000.41,19.2,25.8,,00.0,0637.2,30.9
2021-11-18T20:13:00Z,00000200,01000000,0000.03,0000.42,0000.02,-000.40,0000.16,-000.21,-000.03,0000.00,-000.43,19.1,25.8,,00.0,0637.3,30.9
2021-11-18T20:14:00Z,00000200,01000000,-000.51,0000.17,0000.24,0000.08,0000.05,0000.24,-000.05,-000.22,-000.02,19.2,25.8,,00.0,0637.3,30.9
2021-11-18T20:15:00Z,00000200,01000000,0000.32,0000.27,-000.02,0000.01,-000.23,-000.31,0000.03,0000.39,0000.07,19.2,25.8,,00.0,0637.3,30.9
2021-11-18T20:16:00Z,00000200,01000000,0000.52,0000.08,-000.09,-000.17,-000.06,0000.24,0000.16,-000.05,0000.37,19.2,25.8,,00.0,0637.3,31.0
2021-11-18T20:17:00Z,00000200,01000000,0000.94,0000.12,-000.07,0001.28,0000.09,-000.25,0000.26,0000.18,-000.01,19.2,25.8,,00.0,0637.3,31.0
2021-11-18T20:18:00Z,00000200,01000000,-000.09,0000.36,0000.05,-000.18,0000.10,-000.35,0000.00,0000.11,-000.05,19.3,25.8,,00.0,0637.3,31.0
2021-11-18T20:19:00Z,00000200,01000000,0000.46,0000.22,0000.16,0000.06,-000.03,0000.21,-000.12,0000.00,0000.22,19.3,25.9,,00.0,0637.3,31.0
2021-11-18T20:20:00Z,00000200,01000000,0000.17,0000.34,0000.09,0000.11,-000.15,0000.23,0000.37,0000.00,-000.02,19.4,25.9,,00.0,0637.3,31.0
2021-11-18T20:21:00Z,00000200,01000000,0000.16,0000.52,0000.29,-000.04,0000.08,0000.20,-000.20,0000.19,-000.16,19.4,25.9,,00.0,0637.3,31.0
2021-11-18T20:22:00Z,00000200,01000000,0000.48,0000.21,-000.21,0000.52,0000.25,-000.19,0000.18,0000.03,0000.23,19.5,26.0,,00.0,0637.3,31.0
2021-11-18T20:23:00Z,00000200,01000000,0000.26,0000.13,0000.25,-000.24,0000.07,0000.13,-000.24,-000.14,-000.16,19.5,26.0,,00.0,0637.3,31.0
2021-11-18T20:24:00Z,00000200,01000000,-000.34,0000.23,-000.09,0000.95,0000.13,0000.19,-000.10,-000.18,0000.25,19.5,26.0,,00.0,0637.3,31.0
2021-11-18T20:25:00Z,00000200,01000000,0000.05,0000.25,-000.19,-000.03,-000.02,-000.22,0000.03,0000.06,-000.34,19.5,26.0,,00.0,0637.3,30.9
2021-11-18T20:26:00Z,00000200,01000000,-000.12,0000.22,0000.02,-000.08,0000.11,0000.29,0000.28,0000.04,-000.15,19.4,26.0,,00.0,0637.3,31.0
2021-11-18T20:27:00Z,00000200,01000000,-000.26,0000.08,0000.35,0000.09,0000.02,-000.00,-000.31,0000.18,0000.26,19.3,25.9,,00.0,0637.3,30.9
2021-11-18T20:28:00Z,00000200,01000000,0000.27,0000.05,0000.39,0000.22,-000.10,0000.10,0000.25,-000.14,-000.04,19.3,25.9,,00.0,0637.4,30.9
2021-11-18T20:29:00Z,00000200,01000000,0000.45,0000.21,-000.06,0000.05,-000.10,-000.31,0000.05,0000.17,0000.16,19.3,25.9,,00.0,0637.4,30.9
2021-11-18T20:30:00Z,00000200,01000000,0000.72,0000.15,0000.05,-000.13,-000.18,-000.09,0000.26,-000.12,0000.19,19.3,25.9,,00.0,0637.4,30.9
2021-11-18T20:31:00Z,00000200,01000000,0000.79,0000.23,-000.01,0000.74,-000.28,0000.21,-000.17,0000.30,-000.25,19.3,25.9,,00.0,0637.4,30.9
2021-11-18T20:32:00Z,00000200,01000000,0000.13,0000.24,0000.20,-000.16,0000.15,-000.05,0000.04,-000.15,0000.01,19.3,25.9,,00.0,0637.4,31.0
2021-11-18T20:33:00Z,00000200,01000000,0000.40,0000.04,0000.38,0000.34,0000.18,0000.06,0000.20,0000.08,0000.02,19.4,26.0,,00.0,0637.4,31.0
2021-11-18T20:34:00Z,00000200,01000000,0000.06,0000.32,0000.28,-000.23,0000.22,0000.04,-000.23,-000.02,0000.19,19.4,26.0,,00.0,0637.4,31.0
2021-11-18T20:35:00Z,00000200,01000000,-000.09,0000.15,0000.38,0000.40,0000.01,0000.28,0000.26,0000.10,-000.10,19.5,26.0,,00.0,0637.4,31.0
2021-11-18T20:36:00Z,00000200,01000000,-000.38,0000.30,0000.30,0000.29,-000.03,0000.06,-000.15,0000.08,0000.16,19.5,26.1,,00.0,0637.4,31.0
2021-11-18T20:37:00Z,00000200,01000000,0000.25,0000.19,0000.03,0000.11,-000.13,-000.14,-000.01,-000.11,0000.19,19.6,26.1,,00.0,0637.4,31.0
2021-11-18T20:38:00Z,00000200,01000000,0000.80,-000.13,0000.35,0000.54,0000.06,0000.13,0000.26,-000.07,-000.17,19.6,26.1,,00.0,0637.5,31.0
2021-11-18T20:39:00Z,00000200,01000000,0000.07,0000.05,-000.08,0000.35,-000.22,-000.15,-000.25,0000.06,0000.03,19.6,26.1,,00.0,0637.4,31.0
2021-11-18T20:40:00Z,00000200,01000000,0000.31,0000.07,-000.06,0000.04,-000.15,0000.17,0000.20,0000.05,-000.01,19.6,26.1,,00.0,0637.4,31.0
2021-11-18T20:41:00Z,00000200,01000000,-000.24,0000.32,0000.24,0000.15,-000.35,0000.05,-000.08,0000.02,-000.10,19.5,26.1,,00.0,0637.4,30.9
2021-11-18T20:42:00Z,00000200,01000000,-000.10,0000.11,0000.08,-000.29,0000.18,0000.19,-000.19,0000.26,0000.10,19.4,26.0,,00.0,0637.5,30.9
2021-11-18T20:43:00Z,00000200,01000000,0000.55,-000.08,0000.10,-000.12,-000.22,-000.01,0000.07,-000.43,0000.33,19.4,26.0,,00.0,0637.5,30.9
2021-11-18T20:44:00Z,00000200,01000000,0000.33,0000.20,0000.18,0000.09,0000.24,0000.06,0000.38,0000.18,-000.32,19.4,26.0,,00.0,0637.5,30.9
2021-11-18T20:45:00Z,00000200,01000000,0000.33,0000.44,0000.21,-000.77,-000.13,-000.06,0000.03,0000.47,-000.07,19.4,26.0,,00.0,0637.5,30.9
2021-11-18T20:46:00Z,00000200,01000000,0000.28,0000.42,0000.07,0000.18,0000.05,0000.18,0000.08,-000.11,0000.02,19.4,26.0,,00.0,0637.5,31.0
2021-11-18T20:47:00Z,00000200,01000000,0000.86,0000.18,0000.34,-000.15,-000.07,0000.10,0000.11,-000.13,0000.26,19.5,26.0,,00.0,0637.5,31.0
2021-11-18T20:48:00Z,00000200,01000000,0000.48,0000.05,0000.91,0000.07,0000.03,0000.23,-000.03,-000.02,-000.01,19.5,26.1,,00.0,0637.5,31.0
2021-11-18T20:49:00Z,00000200,01000000,-000.50,0000.21,0000.33,-000.33,0000.24,0000.18,-000.19,0000.21,0000.11,19.5,26.1,,00.0,0637.5,31.0
2021-11-18T20:50:00Z,00000200,01000000,0000.18,-000.05,0000.35,0000.09,-000.23,0000.01,0000.03,-000.06,0000.12,19.6,26.1,,00.0,0637.5,31.0
2021-11-18T20:51:00Z,00000200,01000000,0000.39,-000.04,0000.16,-000.08,-000.25,0000.27,0000.29,0000.13,-000.39,19.7,26.1,,00.0,0637.5,31.0
2021-11-18T20:52:00Z,00000200,01000000,0000.34,-000.04,0000.21,0000.32,-000.07,0000.18,-000.36,-000.37,0000.22,19.7,26.2,,00.0,0637.5,31.0
2021-11-18T20:53:00Z,00000200,01000000,0000.21,0000.03,0000.41,0000.29,0000.12,-000.09,-000.00,-000.25,-000.12,19.6,26.1,,00.0,0637.5,31.0
2021-11-18T20:54:00Z,00000200,01000000,-000.01,0000.13,0000.28,0000.14,0000.15,0000.14,0000.17,0000.49,0000.03,19.5,26.1,,00.0,0637.5,31.0
2021-11-18T20:55:00Z,00000200,01000000,-000.01,0000.46,0000.42,0000.91,-000.06,0000.24,0000.05,-000.04,0000.10,19.5,26.1,,00.0,0637.5,30.9
2021-11-18T20:56:00Z,00000200,01000000,-000.17,-000.15,0000.26,-000.64,-000.15,0000.11,-000.24,-000.14,0000.01,19.4,26.1,,00.0,0637.5,30.9
2021-11-18T20:57:00Z,00000200,41000000,,,,,,,0000.44,0000.23,-000.02,19.4,26.1,,00.0,0637.5,30.9
2021-11-18T20:58:00Z,00000200,61000000,,,,,,,-000.05,-000.30,0000.27,19.0,26.1,,00.0,0636.6,30.9
2021-11-18T20:59:00Z,00000200,21000000,,,,,,,0000.20,0000.37,-000.25,19.0,26.2,,00.0,0636.6,30.9
